Location: Newark
(25.0000°N, 73.5000°E)
Time: 00:55:56
(UTC+00:00)

Tiros 1 despin weight - Pass Details

Date: 02 March 2021
Orbit: 593 x 641 km, 48.2° (Epoch: 15 April)

Event Time Altitude Azimuth Distance (km) Brightness Sun altitude
Rises 17:35:27 0° 230° (SW) 2,843 - -59.5°
Reaches altitude 10° 17:37:44 10° 232° (SW) 1,950 - -60.0°
Maximum altitude 17:42:12 70° 317° (NW) 654 - -60.8°
Drops below altitude 10° 17:46:45 10° 40° (NE) 1,987 - -61.7°
Sets 17:49:06 0° 43° (NE) 2,903 - -62.1°
